Simultaneous Nadir Overpasses (SNOs) Predictions

Prediction of SNOs over PacNW region [( 10.00, 139.50) to ( 22.70, 165.60)] between AQUA and NPP Satellites:

Table of predicted SNOs over PacNW region for the next 30.0 days since TLE Epoch: 7/31/2012
Index Date (AQUA) Time (AQUA) AQUA Lat,Lon Date (NPP) Time (NPP) NPP Lat,Lon Distance(km) Time Diff (sec)
1 08/06/2012 15:59:14 22.64, 147.45 08/06/2012 15:59:53 23.27, 144.59 301.69 39
2 08/14/2012 15:10:03 20.96, 159.45 08/14/2012 15:09:35 21.50, 156.83 278.23 28
3 08/22/2012 15:58:48 22.59, 147.52 08/22/2012 15:59:46 23.24, 144.59 309.47 58




NCC Satellite Simultaneous Nadir Overpasses (SNOs) Prediction Service
